Airfield :
LOGIN :

Register | Disclaimer

   EN    FR    IT 

 










Legend :    VFR   Marginal VFR   IFR   Intensive IFR   Very Intensive IFR
Visi :
Ceiling :
>= 8 km
>= 3000ft
5 to 8 km
1000 to 3000 ft
1500m to 5 km
500 to 1000 ft
800 to 1500m
200 to 500 ft
< 800m
< 200 ft
Symbols :   Thunderstorms  Fog  Heavy snow  Heavy precipitations  Wind > 20 kt
SIGMETs :     Misc.  Thunderstorms  Icing  Turbulence  Mountain Waves  Volcanic Ashes







- Airport Elevation : 39 ft
- IATA code : ANR


EBAW - Anvers / Antwerpen Deurne

CURRENT METAR :
  • 191020Z 25010KT 220V280 9999 FEW019 09/04 Q1020 NOSIG

EXPIRED METARs :
  • 190950Z 25013KT 220V280 9999 FEW015 08/04 Q1020 NOSIG
  • 190920Z 24011KT 9999 FEW012 08/04 Q1020 NOSIG
  • 190850Z 24011KT 200V260 9999 FEW010 07/04 Q1019 NOSIG
  • 190820Z 23008KT 9999 FEW008 07/04 Q1019 NOSIG
  • 190750Z 23008KT 9999 FEW008 06/05 Q1019 NOSIG

TAF TAF EBAW
Valid from the 19 at 09:00 until the 19 at 18:00 UTC


190813Z 1909/1918 23010KT 9999 FEW020 SCT035
No reported NOTAMs for that airfield.



MET'MAP, your aeronautical weather chart ! - Copyright ORBIFLY December 2007 - Disclaimer

ORBIFLY MET'MAP TEAM :

Programming & Development : Alexandra Zaïnal
Concept & Development : Baudouin d'Aumeries
Co-Development & Prog : Marc-Olivier Méhu
Technical & hardware support : Manuel Goepfert

Contact : metmap@orbifly.com




SOURCES & CREDITS :

   NOAA